SCP
0 0 0 0 0 0 0 0 0 0 0 0 -0 -0 -0 -0 -0 -0 -0 0 0 0 0 0 0 0 0 0 0 0 0 0 0 0 0 0 0 0 0 0 0 0 0 0 0 0 0
0 0 0 0 0 0 0 0 0 0 0 0 0 -0 -0 -0 -0 -0 -0 0 0 0 0 0 0 0 0 0 0 0 0 0 0 0 0 0 0 0 0 0 0 0 0 0 0 0 0
0 0 0 0 0 0 0 0 0 0 0 0 0 0 -0 -0 -0 -0 -0 -0 0 0 0 -0 0 0 0 0 0 0 0 0 0 0 0 0 0 0 0 0 0 0 0 0 0 0 0
0 0 0 0 0 0 0 0 0 0 0 0 0 0 0 -0 0 0 0 0 0 0 0 0 0 0 0 0 0 0 0 0 0 0 0 0 0 0 0 0 0 0 0 0 0 0 0
0 0 0 0 0 0 0 0 0 0 0 0 0 0 0 0 0 0 0 0 0 0 0 0 0 0 0 0 0 0 0 0 0 0 0 0 0 0 0 0 0 0 0 0 0 0 0
0 0 0 0 0 0 0 0 0 0 0 0 0 0 0 0 0 0 0 -0 0 0 0 0 0 0 0 0 0 0 0 0 0 0 0 0 0 0 0 0 0 0 0 0 0 0 0
0 0 0 0 0 0 0 0 0 0 0 0 0 0 0 0 0 0 0 0 0 0 0 0 0 0 0 0 0 0 0 0 0 0 0 0 0 0 0 0 0 0 0 0 0 0 0
0 0 0 0 0 0 0 0 0 0 0 0 0 0 0 0 0 0 0 -0 0 0 0 0 0 0 0 0 0 0 0 0 0 0 0 0 0 0 0 0 0 0 0 0 0 0 0
0 0 0 0 0 0 0 0 0 0 0 0 0 0 0 0 0 0 -0 0 0 0 0 0 0 0 0 0 0 0 0 0 0 0 0 0 0 0 0 0 0 0 0 0 0 0 0
0 0 0 0 0 0 0 0 0 0 0 0 0 0 0 0 0 0 0 0 0 0 0 0 0 0 0 0 0 0 0 0 0 0 0 0 0 0 0 0 0 0 0 0 0 0 0
0 0 0 0 0 0 0 0 0 0 0 0 0 0 0 0 0 0 0 0 0 0 0 0 0 0 0 0 0 0 0 0 0 0 0 0 0 0 0 0 0 0 0 0 0 0 0
0 0 0 0 0 0 0 0 0 0 0 0 0 0 0 0 0 0 0 0 0 0 0 0 0 0 0 0 0 0 0 0 0 0 0 0 0 0 0 0 0 0 0 0 0 0 0
0 0 0 0 0 0 0 0 0 0 0 0 0 0 0 0 0 0 0 0 0 0 0 0 0 0 0 0 0 0 0 0 0 0 0 0 0 0 0 0 0 0 0 0 0 0 0
0 0 0 0 0 0 0 0 0 0 0 0 0 0 0 0 0 0 0 0 0 0 0 0 0 0 0 0 0 0 0 0 0 0 0 0 0 0 0 0 0 0 0 0 0 0 0
0 0 0 0 0 0 0 0 0 0 0 0 0 0 0 0 0 0 0 0 0 0 0 0 0 0 0 0 0 0 0 0 0 0 0 0 0 0 0 0 0 0 0 0 -0 -0 0
0 0 0 0 0 0 0 0 0 0 0 0 0 0 0 0 0 0 0 0 0 0 0 0 0 0 0 0 0 0 0 0 0 0 0 0 0 0 0 0 0 0 0 0 0 0 0
0 0 0 0 0 0 0 0 0 0 0 0 0 0 0 0 0 0 0 0 0 0 0 0 0 0 0 0 0 0 0 0 0 0 0 0 0 0 0 0 0 0 0 0 0 0 0
0 0 0 0 0 0 0 0 0 0 0 0 0 0 0 0 0 0 0 0 0 0 0 0 0 0 0 0 0 0 0 0 0 0 0 0 0 0 0 0 0 0 0 0 0 -0 0
0 0 0 0 0 0 0 0 0 0 0 0 0 0 0 0 0 0 0 0 0 0 0 0 0 0 0 0 0 0 0 0 0 0 0 0 0 0 0 0 0 0 0 0 0 0 -0
0 0 0 0 0 0 0 0 0 0 0 0 0 0 0 0 0 0 0 0 0 0 0 0 0 0 0 0 0 0 0 0 0 0 0 0 0 -0 -0 -0 -0 0 -0 0 0 0 0
0 0 0 0 0 0 0 0 0 0 0 0 0 0 0 0 0 0 0 0 0 0 0 0 0 0 0 0 0 0 0 0 0 0 0 0 -0 -0 -0 0 0 -0 -0 -0 -0 -0 -0
0 0 0 0 0 0 0 0 0 0 0 0 0 0 0 0 0 0 0 0 0 0 0 0 0 0 0 0 0 0 0 0 0 0 0 0 -0 0 0 0 -0 0 0 -0 -0 0 0
0 0 0 0 0 0 0 0 0 0 0 0 0 0 0 0 0 0 0 0 0 0 0 0 0 0 0 0 0 -0 0 0 0 0 0 0 0 0 0 0 0 -0 0 0 0 0 0
0 0 0 0 0 0 0 0 0 0 0 0 0 0 0 0 0 0 0 0 0 0 0 0 0 0 0 0 0 0 0 0 0 0 -0 -0 0 0 0 0 -0 0 0 0 -0 0 0
0 0 0 0 0 0 0 0 0 0 0 0 0 0 0 0 0 0 0 0 0 0 0 0 0 0 0 -0 -0 -0 -0 -0 0 0 -0 0 0 0 0 0 0 0 0 -0 -0 0 -0
0 0 0 0 0 0 0 0 0 0 0 0 0 0 0 0 0 0 0 0 0 0 0 0 0 0 0 -0 0 0 0 0 0 0 -0 -0 0 0 0 0 0 0 -0 0 0 0 0
0 0 0 0 0 0 0 0 0 0 0 0 0 0 0 0 0 0 0 0 0 0 0 0 0 0 0 -0 0 0 0 0 0 0 0 0 0 0 0 0 0 0 0 0 0 0 0
0 0 0 0 0 0 0 0 0 0 0 0 0 0 0 0 0 0 0 0 0 0 0 0 0 0 -0 -0 0 0 0 0 0 0 0 0 0 0 0 0 0 -0 0 0 -0 -0 0
0 0 0 0 0 0 -0 0 0 0 0 0 0 0 0 0 0 0 0 0 0 0 0 0 0 0 0 0 0 -0 0 0 0 0 0 0 0 0 0 0 0 -0 -0 0 -0 -0 -0
Wind_Speed_500mb
11 11 11 12 13 14 17 19 22 24 24 25 28 31 35 36 37 38 40 38 36 35 33 35 32 31 24 8 25 24 25 19 15 21 23 14 9 7 10 9 8 9 6 14 23 29 28
7 6 6 7 10 13 16 19 21 24 27 29 31 34 36 40 42 43 45 44 43 37 35 36 34 30 20 9 14 21 21 19 14 17 19 14 13 14 15 6 5 11 21 19 17 21 28
2 1 4 8 11 12 15 18 20 22 24 26 30 33 36 37 38 37 33 33 36 36 32 33 32 31 32 32 18 31 25 21 16 16 16 7 11 11 18 10 14 13 11 8 5 14 9
1 1 4 7 9 13 15 16 18 21 23 26 30 36 41 46 50 52 48 41 28 22 22 26 24 24 20 18 23 21 31 27 17 16 12 10 8 14 7 33 10 9 9 5 7 15 21
5 5 4 5 9 13 15 18 20 24 28 32 37 41 45 49 54 58 54 40 21 10 12 14 17 16 18 8 11 15 11 21 14 19 15 8 11 11 17 12 9 6 7 11 5 26 12
9 9 9 10 12 15 17 20 24 28 32 35 38 40 42 46 54 60 52 33 11 8 6 7 7 16 10 16 21 14 15 17 15 17 10 7 4 8 7 7 12 14 10 9 12 14 10
7 14 15 15 16 16 20 22 25 28 31 34 37 38 38 41 47 64 58 16 8 6 24 10 17 22 47 48 49 15 30 14 21 13 7 6 5 7 22 27 2 10 5 9 6 8 9
5 5 11 13 16 18 20 22 25 28 31 33 36 37 36 42 32 49 48 29 26 19 23 18 21 21 34 31 19 32 25 6 8 10 2 8 3 15 2 7 10 7 5 9 5 5 10
11 7 8 13 15 17 20 21 24 27 29 31 34 38 37 39 18 34 43 41 12 19 9 16 18 20 45 27 12 27 30 7 2 8 10 14 11 8 5 7 12 25 9 6 7 6 5
11 13 9 10 14 16 18 21 24 27 29 31 32 37 42 38 14 42 40 25 14 13 9 18 18 18 50 34 11 48 22 16 5 13 10 12 14 15 17 19 17 19 10 11 14 10 7
8 11 12 12 14 17 18 20 23 25 27 29 30 33 37 38 27 41 37 21 12 7 8 28 14 19 56 20 33 13 45 7 11 10 8 17 6 10 11 18 21 14 17 11 8 8 6
6 8 10 12 15 16 18 20 23 24 24 26 27 30 28 27 31 32 31 10 8 12 7 17 18 26 32 31 23 23 26 16 15 9 6 13 1 2 2 9 3 16 14 14 10 6 4
6 7 9 11 14 16 18 20 23 24 24 24 25 26 26 31 36 35 33 2 10 12 15 20 19 27 24 23 17 19 14 11 6 6 2 3 2 3 15 11 14 13 12 7 9 6 12
6 7 9 11 14 16 19 22 23 23 23 22 22 22 23 28 35 39 29 10 19 9 8 11 18 28 9 28 17 28 22 17 8 8 5 8 11 3 3 5 6 5 6 9 12 5 8
6 7 9 10 13 17 20 22 23 23 23 20 17 16 24 28 33 37 14 14 10 4 8 16 23 10 11 22 16 13 12 8 11 9 14 8 4 6 11 5 7 3 7 11 6 4 5
5 7 8 10 13 16 19 22 23 21 21 20 14 13 25 31 33 31 13 10 2 5 11 10 10 9 17 18 17 14 9 7 22 23 13 10 7 7 6 4 12 9 5 3 5 1 7
4 7 9 9 11 15 19 22 22 20 19 17 13 8 16 25 23 20 8 2 5 15 23 5 7 9 11 13 15 10 11 8 24 18 14 3 6 6 9 9 9 5 5 9 8 8 5
3 5 10 9 12 15 18 22 23 20 19 16 11 7 19 22 14 9 5 4 12 14 25 9 7 7 7 19 12 9 9 14 37 38 14 4 6 5 11 7 9 5 8 8 7 6 4
1 6 9 9 12 15 17 21 21 20 23 19 8 8 18 22 7 8 8 8 4 9 13 10 12 10 13 9 8 12 10 19 31 24 9 5 3 5 9 5 5 3 6 11 8 6 12
5 4 8 9 14 15 16 18 15 15 17 16 6 6 10 14 21 7 9 6 10 19 4 15 5 4 14 8 11 17 18 15 49 44 33 11 4 8 9 4 9 7 12 15 18 8 9
10 4 5 8 13 15 16 14 12 12 12 10 10 7 8 4 8 10 6 5 9 13 11 16 7 14 19 10 13 5 21 29 27 20 15 4 9 6 17 21 13 13 18 29 27 35 15
12 7 6 7 13 12 15 12 10 10 10 13 8 8 7 6 9 7 7 9 11 8 6 9 8 24 19 12 17 33 28 21 21 14 16 13 6 3 13 26 13 15 21 25 36 7 16
15 11 7 6 9 10 10 10 7 7 8 11 11 7 3 7 8 3 3 5 8 14 10 13 24 21 15 13 35 66 67 66 53 24 15 9 5 7 11 9 8 9 18 16 13 10 13
17 14 9 6 8 8 8 12 4 4 5 6 10 4 5 3 3 4 13 18 13 14 9 33 36 8 30 74 71 54 57 59 53 55 46 14 3 5 7 4 3 15 4 13 21 12 24
18 15 12 8 6 6 7 9 6 6 4 1 1 2 5 4 6 20 12 7 24 36 9 23 15 48 51 36 10 12 5 8 21 31 34 39 5 5 2 4 13 15 2 10 13 12 29
19 15 13 9 6 4 7 8 12 8 10 7 5 6 4 0 9 10 8 18 8 8 12 12 45 44 27 10 8 6 5 6 6 4 32 32 19 4 1 2 6 11 9 5 7 8 5
22 16 12 8 4 5 8 11 11 8 14 13 6 6 6 10 25 30 6 4 12 7 6 22 26 21 20 9 7 6 5 5 7 4 10 9 6 10 4 5 15 13 17 7 1 10 12
26 17 12 6 3 5 9 14 15 16 15 20 13 10 15 14 43 49 45 27 29 30 5 24 24 8 9 9 6 8 7 10 10 5 11 11 11 8 3 1 10 4 11 2 9 4 9
29 22 16 10 4 6 10 15 19 16 14 20 20 13 14 26 32 34 40 34 37 31 18 7 12 22 8 4 5 5 6 8 15 7 8 2 11 10 14 11 13 15 12 11 6 6 5
Wind_Direction_500mb
80 71 63 53 49 39 33 23 14 10 6 2 356 348 341 337 333 329 326 325 322 319 320 313 313 314 317 280 258 263 269 287 306 282 293 278 276 163 149 123 89 86 133 83 131 116 116
76 70 48 34 28 26 18 16 12 7 2 359 353 348 342 337 333 329 327 323 315 311 312 313 316 317 312 278 266 238 253 272 301 287 292 261 256 226 121 73 91 116 100 112 127 117 130
149 353 6 10 9 19 18 12 6 3 360 358 353 346 342 339 332 326 328 315 305 301 299 302 304 306 298 278 241 232 242 265 295 295 295 226 167 176 131 93 107 104 81 75 151 138 119
323 355 7 9 13 17 15 17 6 4 4 1 356 352 351 348 344 342 344 334 321 302 285 283 292 293 265 288 279 273 244 262 271 293 294 277 230 152 102 118 62 68 54 130 230 153 168
92 85 68 38 39 38 30 23 15 9 6 4 2 2 355 348 346 342 346 338 332 312 299 297 298 288 295 14 17 360 290 257 259 280 267 265 212 102 127 86 35 344 218 213 283 201 145
91 95 78 59 49 40 31 20 14 12 9 4 2 4 354 346 351 344 356 348 6 2 350 349 319 309 338 338 342 323 337 250 267 267 283 238 107 81 55 99 213 200 218 229 213 215 171
62 54 52 45 42 32 28 17 11 8 7 3 358 3 356 343 355 354 360 346 353 264 344 287 306 292 301 301 296 282 340 305 248 231 188 342 68 184 206 207 25 149 194 221 246 201 136
50 38 40 36 32 26 22 15 7 6 3 2 355 359 356 347 360 360 356 63 35 343 319 360 12 348 2 354 311 273 297 318 183 194 211 343 284 244 36 240 292 336 248 252 294 173 167
58 45 30 28 27 20 14 9 6 3 360 360 355 354 0 354 15 10 29 47 14 349 301 314 1 18 9 333 310 324 329 320 5 191 207 204 231 95 218 242 232 252 228 218 236 95 328
53 42 40 28 22 15 10 2 0 2 359 359 358 360 359 5 7 8 23 27 357 6 47 335 359 27 3 334 296 329 355 292 227 228 226 246 254 246 266 240 182 251 191 214 153 114 211
45 41 31 22 13 8 2 359 359 1 360 1 0 6 7 20 17 13 354 359 351 355 58 318 350 336 354 29 319 317 328 252 213 216 133 246 335 313 312 256 210 236 110 98 92 69 35
51 39 30 22 8 1 358 356 359 359 358 360 3 7 20 20 15 1 348 350 336 43 261 352 360 344 344 350 327 317 330 285 234 211 232 234 189 46 290 326 59 158 77 56 55 47 350
43 32 22 16 2 357 355 355 357 357 357 359 4 9 26 22 5 355 348 344 37 90 319 351 332 326 318 344 339 357 315 304 187 130 304 267 145 258 73 328 15 63 73 11 351 354 231
36 25 12 3 355 355 355 357 357 356 357 5 15 33 36 18 1 350 355 56 67 280 352 331 320 309 6 17 339 329 342 350 289 102 120 179 302 57 45 149 228 62 93 121 224 221 272
32 23 11 360 350 353 354 358 357 354 358 10 38 57 42 23 10 360 4 50 174 344 331 321 323 357 343 348 349 341 321 286 320 309 170 126 313 321 50 141 93 344 174 156 124 6 32
22 11 7 2 352 353 354 -0 359 355 358 14 34 57 31 21 13 8 62 119 199 291 339 320 14 349 329 321 325 347 304 349 343 11 344 219 88 4 318 72 73 165 327 131 356 286 291
10 17 12 2 358 354 354 359 1 359 3 12 35 64 18 8 18 37 91 107 309 310 328 283 305 295 281 320 334 304 273 338 12 331 26 96 110 298 30 24 166 322 359 57 128 107 202
349 10 13 13 3 355 356 -0 2 6 10 19 51 50 2 14 46 43 55 348 329 322 347 338 299 327 310 334 303 289 313 317 9 349 333 312 120 126 176 257 187 231 158 126 101 275 234
327 355 7 6 5 356 359 0 8 14 22 27 55 27 30 27 76 31 342 343 298 324 351 358 19 47 317 289 303 258 290 304 1 344 327 309 0 65 333 352 337 182 190 106 85 98 208
243 334 354 3 3 0 0 358 15 27 32 40 43 38 38 56 69 52 18 330 345 352 289 351 210 348 332 322 309 294 297 315 343 319 286 245 162 187 211 226 151 174 233 196 198 201 178
228 253 330 342 356 1 4 4 20 33 42 54 50 59 39 344 10 7 341 330 14 11 331 326 338 9 333 304 308 331 325 327 312 333 337 217 188 217 286 273 241 201 223 195 203 231 202
225 236 275 319 349 0 11 8 23 33 49 66 73 47 28 339 329 359 354 9 29 330 259 315 326 320 301 257 270 293 308 305 288 311 339 310 220 108 292 267 260 237 215 207 220 199 265
223 229 239 298 337 352 6 2 9 24 44 87 84 73 22 338 349 17 82 345 1 0 305 298 315 311 293 279 298 281 271 261 251 276 305 281 264 129 256 243 300 296 225 188 194 201 179
221 225 234 272 326 358 3 8 326 349 48 110 133 132 61 305 325 325 332 322 326 334 281 300 315 301 299 306 303 290 262 250 243 244 227 260 317 196 268 12 334 240 220 186 199 213 206
221 224 225 246 281 306 349 6 337 274 305 207 200 167 115 253 306 292 302 324 325 325 264 281 310 318 315 316 289 293 277 220 234 231 211 211 191 290 213 255 291 293 133 159 171 274 203
213 217 220 229 252 296 337 346 355 242 263 276 270 261 236 231 255 244 334 299 288 315 319 289 323 329 330 284 271 264 273 314 287 201 191 193 196 180 300 231 261 244 290 344 138 305 209
206 210 205 214 246 288 315 336 325 304 235 262 267 241 233 259 273 268 243 300 303 7 311 304 337 324 350 352 301 293 262 259 265 213 150 149 136 187 214 240 286 258 289 328 51 243 311
202 201 200 205 262 307 311 317 317 315 227 251 259 253 253 256 272 273 268 260 274 283 198 294 338 356 327 13 337 344 319 313 296 259 174 154 154 177 109 166 284 330 335 314 227 286 334
201 203 207 206 232 306 307 312 312 310 221 240 274 272 260 261 259 272 276 268 266 259 254 265 275 331 281 327 4 323 281 278 307 297 328 146 186 180 174 212 244 321 293 305 325 311 289
Wind_Speed_850mb
11 11 11 12 13 14 17 19 22 24 24 25 28 31 35 36 37 38 40 38 36 35 33 35 32 31 24 8 25 24 25 19 15 21 23 14 9 7 10 9 8 9 6 14 23 29 28
7 6 6 7 10 13 16 19 21 24 27 29 31 34 36 40 42 43 45 44 43 37 35 36 34 30 20 9 14 21 21 19 14 17 19 14 13 14 15 6 5 11 21 19 17 21 28
2 1 4 8 11 12 15 18 20 22 24 26 30 33 36 37 38 37 33 33 36 36 32 33 32 31 32 32 18 31 25 21 16 16 16 7 11 11 18 10 14 13 11 8 5 14 9
1 1 4 7 9 13 15 16 18 21 23 26 30 36 41 46 50 52 48 41 28 22 22 26 24 24 20 18 23 21 31 27 17 16 12 10 8 14 7 33 10 9 9 5 7 15 21
5 5 4 5 9 13 15 18 20 24 28 32 37 41 45 49 54 58 54 40 21 10 12 14 17 16 18 8 11 15 11 21 14 19 15 8 11 11 17 12 9 6 7 11 5 26 12
9 9 9 10 12 15 17 20 24 28 32 35 38 40 42 46 54 60 52 33 11 8 6 7 7 16 10 16 21 14 15 17 15 17 10 7 4 8 7 7 12 14 10 9 12 14 10
7 14 15 15 16 16 20 22 25 28 31 34 37 38 38 41 47 64 58 16 8 6 24 10 17 22 47 48 49 15 30 14 21 13 7 6 5 7 22 27 2 10 5 9 6 8 9
5 5 11 13 16 18 20 22 25 28 31 33 36 37 36 42 32 49 48 29 26 19 23 18 21 21 34 31 19 32 25 6 8 10 2 8 3 15 2 7 10 7 5 9 5 5 10
11 7 8 13 15 17 20 21 24 27 29 31 34 38 37 39 18 34 43 41 12 19 9 16 18 20 45 27 12 27 30 7 2 8 10 14 11 8 5 7 12 25 9 6 7 6 5
11 13 9 10 14 16 18 21 24 27 29 31 32 37 42 38 14 42 40 25 14 13 9 18 18 18 50 34 11 48 22 16 5 13 10 12 14 15 17 19 17 19 10 11 14 10 7
8 11 12 12 14 17 18 20 23 25 27 29 30 33 37 38 27 41 37 21 12 7 8 28 14 19 56 20 33 13 45 7 11 10 8 17 6 10 11 18 21 14 17 11 8 8 6
6 8 10 12 15 16 18 20 23 24 24 26 27 30 28 27 31 32 31 10 8 12 7 17 18 26 32 31 23 23 26 16 15 9 6 13 1 2 2 9 3 16 14 14 10 6 4
6 7 9 11 14 16 18 20 23 24 24 24 25 26 26 31 36 35 33 2 10 12 15 20 19 27 24 23 17 19 14 11 6 6 2 3 2 3 15 11 14 13 12 7 9 6 12
6 7 9 11 14 16 19 22 23 23 23 22 22 22 23 28 35 39 29 10 19 9 8 11 18 28 9 28 17 28 22 17 8 8 5 8 11 3 3 5 6 5 6 9 12 5 8
6 7 9 10 13 17 20 22 23 23 23 20 17 16 24 28 33 37 14 14 10 4 8 16 23 10 11 22 16 13 12 8 11 9 14 8 4 6 11 5 7 3 7 11 6 4 5
5 7 8 10 13 16 19 22 23 21 21 20 14 13 25 31 33 31 13 10 2 5 11 10 10 9 17 18 17 14 9 7 22 23 13 10 7 7 6 4 12 9 5 3 5 1 7
4 7 9 9 11 15 19 22 22 20 19 17 13 8 16 25 23 20 8 2 5 15 23 5 7 9 11 13 15 10 11 8 24 18 14 3 6 6 9 9 9 5 5 9 8 8 5
3 5 10 9 12 15 18 22 23 20 19 16 11 7 19 22 14 9 5 4 12 14 25 9 7 7 7 19 12 9 9 14 37 38 14 4 6 5 11 7 9 5 8 8 7 6 4
1 6 9 9 12 15 17 21 21 20 23 19 8 8 18 22 7 8 8 8 4 9 13 10 12 10 13 9 8 12 10 19 31 24 9 5 3 5 9 5 5 3 6 11 8 6 12
5 4 8 9 14 15 16 18 15 15 17 16 6 6 10 14 21 7 9 6 10 19 4 15 5 4 14 8 11 17 18 15 49 44 33 11 4 8 9 4 9 7 12 15 18 8 9
10 4 5 8 13 15 16 14 12 12 12 10 10 7 8 4 8 10 6 5 9 13 11 16 7 14 19 10 13 5 21 29 27 20 15 4 9 6 17 21 13 13 18 29 27 35 15
12 7 6 7 13 12 15 12 10 10 10 13 8 8 7 6 9 7 7 9 11 8 6 9 8 24 19 12 17 33 28 21 21 14 16 13 6 3 13 26 13 15 21 25 36 7 16
15 11 7 6 9 10 10 10 7 7 8 11 11 7 3 7 8 3 3 5 8 14 10 13 24 21 15 13 35 66 67 66 53 24 15 9 5 7 11 9 8 9 18 16 13 10 13
17 14 9 6 8 8 8 12 4 4 5 6 10 4 5 3 3 4 13 18 13 14 9 33 36 8 30 74 71 54 57 59 53 55 46 14 3 5 7 4 3 15 4 13 21 12 24
18 15 12 8 6 6 7 9 6 6 4 1 1 2 5 4 6 20 12 7 24 36 9 23 15 48 51 36 10 12 5 8 21 31 34 39 5 5 2 4 13 15 2 10 13 12 29
19 15 13 9 6 4 7 8 12 8 10 7 5 6 4 0 9 10 8 18 8 8 12 12 45 44 27 10 8 6 5 6 6 4 32 32 19 4 1 2 6 11 9 5 7 8 5
22 16 12 8 4 5 8 11 11 8 14 13 6 6 6 10 25 30 6 4 12 7 6 22 26 21 20 9 7 6 5 5 7 4 10 9 6 10 4 5 15 13 17 7 1 10 12
26 17 12 6 3 5 9 14 15 16 15 20 13 10 15 14 43 49 45 27 29 30 5 24 24 8 9 9 6 8 7 10 10 5 11 11 11 8 3 1 10 4 11 2 9 4 9
29 22 16 10 4 6 10 15 19 16 14 20 20 13 14 26 32 34 40 34 37 31 18 7 12 22 8 4 5 5 6 8 15 7 8 2 11 10 14 11 13 15 12 11 6 6 5
Wind_Direction_850mb
80 71 63 53 49 39 33 23 14 10 6 2 356 348 341 337 333 329 326 325 322 319 320 313 313 314 317 280 258 263 269 287 306 282 293 278 276 163 149 123 89 86 133 83 131 116 116
76 70 48 34 28 26 18 16 12 7 2 359 353 348 342 337 333 329 327 323 315 311 312 313 316 317 312 278 266 238 253 272 301 287 292 261 256 226 121 73 91 116 100 112 127 117 130
149 353 6 10 9 19 18 12 6 3 360 358 353 346 342 339 332 326 328 315 305 301 299 302 304 306 298 278 241 232 242 265 295 295 295 226 167 176 131 93 107 104 81 75 151 138 119
323 355 7 9 13 17 15 17 6 4 4 1 356 352 351 348 344 342 344 334 321 302 285 283 292 293 265 288 279 273 244 262 271 293 294 277 230 152 102 118 62 68 54 130 230 153 168
92 85 68 38 39 38 30 23 15 9 6 4 2 2 355 348 346 342 346 338 332 312 299 297 298 288 295 14 17 360 290 257 259 280 267 265 212 102 127 86 35 344 218 213 283 201 145
91 95 78 59 49 40 31 20 14 12 9 4 2 4 354 346 351 344 356 348 6 2 350 349 319 309 338 338 342 323 337 250 267 267 283 238 107 81 55 99 213 200 218 229 213 215 171
62 54 52 45 42 32 28 17 11 8 7 3 358 3 356 343 355 354 360 346 353 264 344 287 306 292 301 301 296 282 340 305 248 231 188 342 68 184 206 207 25 149 194 221 246 201 136
50 38 40 36 32 26 22 15 7 6 3 2 355 359 356 347 360 360 356 63 35 343 319 360 12 348 2 354 311 273 297 318 183 194 211 343 284 244 36 240 292 336 248 252 294 173 167
58 45 30 28 27 20 14 9 6 3 360 360 355 354 0 354 15 10 29 47 14 349 301 314 1 18 9 333 310 324 329 320 5 191 207 204 231 95 218 242 232 252 228 218 236 95 328
53 42 40 28 22 15 10 2 0 2 359 359 358 360 359 5 7 8 23 27 357 6 47 335 359 27 3 334 296 329 355 292 227 228 226 246 254 246 266 240 182 251 191 214 153 114 211
45 41 31 22 13 8 2 359 359 1 360 1 0 6 7 20 17 13 354 359 351 355 58 318 350 336 354 29 319 317 328 252 213 216 133 246 335 313 312 256 210 236 110 98 92 69 35
51 39 30 22 8 1 358 356 359 359 358 360 3 7 20 20 15 1 348 350 336 43 261 352 360 344 344 350 327 317 330 285 234 211 232 234 189 46 290 326 59 158 77 56 55 47 350
43 32 22 16 2 357 355 355 357 357 357 359 4 9 26 22 5 355 348 344 37 90 319 351 332 326 318 344 339 357 315 304 187 130 304 267 145 258 73 328 15 63 73 11 351 354 231
36 25 12 3 355 355 355 357 357 356 357 5 15 33 36 18 1 350 355 56 67 280 352 331 320 309 6 17 339 329 342 350 289 102 120 179 302 57 45 149 228 62 93 121 224 221 272
32 23 11 360 350 353 354 358 357 354 358 10 38 57 42 23 10 360 4 50 174 344 331 321 323 357 343 348 349 341 321 286 320 309 170 126 313 321 50 141 93 344 174 156 124 6 32
22 11 7 2 352 353 354 -0 359 355 358 14 34 57 31 21 13 8 62 119 199 291 339 320 14 349 329 321 325 347 304 349 343 11 344 219 88 4 318 72 73 165 327 131 356 286 291
10 17 12 2 358 354 354 359 1 359 3 12 35 64 18 8 18 37 91 107 309 310 328 283 305 295 281 320 334 304 273 338 12 331 26 96 110 298 30 24 166 322 359 57 128 107 202
349 10 13 13 3 355 356 -0 2 6 10 19 51 50 2 14 46 43 55 348 329 322 347 338 299 327 310 334 303 289 313 317 9 349 333 312 120 126 176 257 187 231 158 126 101 275 234
327 355 7 6 5 356 359 0 8 14 22 27 55 27 30 27 76 31 342 343 298 324 351 358 19 47 317 289 303 258 290 304 1 344 327 309 0 65 333 352 337 182 190 106 85 98 208
243 334 354 3 3 0 0 358 15 27 32 40 43 38 38 56 69 52 18 330 345 352 289 351 210 348 332 322 309 294 297 315 343 319 286 245 162 187 211 226 151 174 233 196 198 201 178
228 253 330 342 356 1 4 4 20 33 42 54 50 59 39 344 10 7 341 330 14 11 331 326 338 9 333 304 308 331 325 327 312 333 337 217 188 217 286 273 241 201 223 195 203 231 202
225 236 275 319 349 0 11 8 23 33 49 66 73 47 28 339 329 359 354 9 29 330 259 315 326 320 301 257 270 293 308 305 288 311 339 310 220 108 292 267 260 237 215 207 220 199 265
223 229 239 298 337 352 6 2 9 24 44 87 84 73 22 338 349 17 82 345 1 0 305 298 315 311 293 279 298 281 271 261 251 276 305 281 264 129 256 243 300 296 225 188 194 201 179
221 225 234 272 326 358 3 8 326 349 48 110 133 132 61 305 325 325 332 322 326 334 281 300 315 301 299 306 303 290 262 250 243 244 227 260 317 196 268 12 334 240 220 186 199 213 206
221 224 225 246 281 306 349 6 337 274 305 207 200 167 115 253 306 292 302 324 325 325 264 281 310 318 315 316 289 293 277 220 234 231 211 211 191 290 213 255 291 293 133 159 171 274 203
213 217 220 229 252 296 337 346 355 242 263 276 270 261 236 231 255 244 334 299 288 315 319 289 323 329 330 284 271 264 273 314 287 201 191 193 196 180 300 231 261 244 290 344 138 305 209
206 210 205 214 246 288 315 336 325 304 235 262 267 241 233 259 273 268 243 300 303 7 311 304 337 324 350 352 301 293 262 259 265 213 150 149 136 187 214 240 286 258 289 328 51 243 311
202 201 200 205 262 307 311 317 317 315 227 251 259 253 253 256 272 273 268 260 274 283 198 294 338 356 327 13 337 344 319 313 296 259 174 154 154 177 109 166 284 330 335 314 227 286 334
201 203 207 206 232 306 307 312 312 310 221 240 274 272 260 261 259 272 276 268 266 259 254 265 275 331 281 327 4 323 281 278 307 297 328 146 186 180 174 212 244 321 293 305 325 311 289